Location: Byszew
(52.1813°N, 19.2693°E)
Time: 14:58:18
(UTC+00:00)

AIST 2D - Visible Passes

Search period start: 26 June 2022 00:00
Search period end: 06 July 2022 00:00
Orbit: 433 x 449 km, 97.1° (Epoch: 26 June)

Date Brightness Start Highest point End Pass type
(mag) Time Alt. Az. Time Alt. Az. Time Alt. Az.
26 Jun ? 20:45:34 10° N 20:48:52 61° WNW 20:52:08 10° SSW visible
27 Jun ? 20:07:57 10° NNE 20:11:11 45° E 20:14:23 10° S visible
27 Jun ? 21:41:22 10° NNW 21:43:30 16° WNW 21:45:37 10° WSW visible
28 Jun ? 21:02:56 10° N 21:06:04 38° WNW 21:09:09 10° SW visible
29 Jun ? 20:25:05 10° NNE 20:28:25 75° ESE 20:31:44 10° S visible
29 Jun ? 21:59:28 10° NW 22:00:31 11° WNW 22:01:35 10° WNW visible
30 Jun ? 21:20:20 10° N 21:23:07 25° WNW 21:25:54 10° WSW visible
01 Jul ? 20:42:13 10° N 20:45:31 67° WNW 20:48:49 10° SSW visible
02 Jul ? 20:04:33 10° NNE 20:07:44 41° E 20:10:54 10° S visible
02 Jul ? 21:37:49 10° NNW 21:40:04 17° WNW 21:42:20 10° WSW visible
03 Jul ? 20:59:22 10° N 21:02:32 41° WNW 21:05:41 10° SW visible
04 Jul ? 20:21:27 10° NNE 20:24:46 68° ESE 20:28:05 10° S visible
04 Jul ? 21:55:32 10° NW 21:56:55 12° WNW 21:58:17 10° W visible
05 Jul ? 21:16:32 10° N 21:19:24 27° WNW 21:22:17 10° SW visible
